Temperature
21 20 19 21 24 29 31 32 32 32 32 31 30 31 31 31 30 28 24 23 22 21 21 22 21 21 21 21 21 20 20 19 19 20 20 19 19 19 19 19 20 19 19 19 19 18 18 18 18
20 19 20 24 29 32 31 32 32 32 31 30 30 30 31 30 27 25 23 22 22 21 21 22 21 21 21 20 20 20 20 19 19 19 19 19 19 19 19 19 19 19 19 19 19 19 18 18 18
19 20 24 29 31 31 31 32 32 31 30 30 31 30 30 28 26 24 23 22 22 21 20 21 21 21 20 20 20 20 20 20 20 19 19 19 19 19 19 19 19 19 19 19 19 19 18 18 18
20 22 26 30 32 32 31 32 32 32 31 30 31 31 28 24 24 23 23 22 22 21 20 21 21 21 20 20 20 20 20 20 20 20 19 19 19 20 20 19 19 19 18 19 19 19 18 18 19
22 26 30 32 32 32 32 32 31 32 32 31 31 31 27 23 23 23 23 22 22 21 20 20 21 20 20 20 20 20 20 20 20 19 19 19 19 19 19 19 19 19 18 18 19 19 19 19 19
26 29 31 32 32 32 33 32 32 32 32 31 31 30 26 22 23 23 22 22 22 21 20 19 20 20 20 20 20 20 20 20 19 19 19 19 19 19 19 19 19 19 18 19 19 19 19 19 19
27 30 31 31 32 32 33 32 32 32 32 31 30 30 26 23 22 22 22 21 21 21 20 19 19 19 20 20 20 20 20 20 20 19 19 19 19 19 19 19 19 19 19 19 19 19 19 19 19
27 30 31 32 31 32 32 32 31 31 30 29 29 30 27 23 22 21 21 21 20 20 20 19 19 19 19 19 20 20 20 20 20 20 20 20 20 19 19 19 19 19 19 19 19 19 19 19 19
26 29 31 32 31 32 32 31 31 30 30 29 27 27 26 23 21 21 21 20 20 20 20 20 20 20 20 19 19 20 20 20 19 19 19 19 19 19 19 19 19 19 19 19 19 19 18 18 18
28 30 31 31 31 31 31 30 29 31 30 28 25 23 22 21 21 22 21 20 20 20 21 21 21 21 20 20 19 19 19 19 19 18 18 19 18 18 18 18 19 19 19 19 19 19 18 18 17
29 30 31 30 30 30 30 30 28 29 28 25 25 23 21 21 22 22 22 21 21 21 21 21 20 20 20 20 19 19 19 18 18 18 19 19 18 18 18 18 18 18 18 18 18 18 17 17 18
29 30 29 29 29 29 29 29 27 24 22 22 24 23 21 21 22 22 22 22 22 21 20 20 19 19 19 18 18 18 18 18 18 18 18 18 18 18 18 18 18 18 18 18 17 17 17 17 17
29 29 29 29 28 28 27 27 25 22 21 21 21 21 21 21 21 21 21 21 20 19 19 18 18 18 18 18 18 18 18 18 18 18 18 18 18 18 18 18 17 17 17 17 17 17 17 17 17
29 29 28 27 27 26 27 26 24 20 19 19 19 19 19 19 19 19 19 19 18 18 17 18 17 17 18 18 18 18 17 18 18 18 17 17 17 17 17 17 17 17 17 17 17 17 17 17 17
28 29 29 27 26 26 27 25 22 19 19 18 17 17 17 17 17 17 17 17 17 17 17 17 17 18 18 18 18 17 17 17 17 17 17 17 17 17 17 17 17 17 17 17 17 17 17 17 17
29 30 29 27 26 26 27 25 21 20 19 18 18 17 17 17 17 17 17 17 17 17 17 17 17 17 18 18 18 17 17 17 17 17 17 17 17 17 17 17 17 17 17 17 17 17 17 17 17
30 30 29 27 26 27 27 23 21 20 20 19 18 18 17 17 16 16 16 16 16 17 17 17 17 17 17 17 17 17 17 16 16 16 16 17 17 17 16 17 17 17 17 17 17 17 17 17 17
29 29 29 27 26 26 25 22 21 20 20 19 19 19 18 17 17 16 16 16 16 16 16 16 16 17 17 17 16 16 16 16 16 16 16 16 16 16 16 16 16 17 17 17 16 16 16 16 16
29 29 29 27 25 25 23 21 21 20 20 20 20 19 19 18 17 16 16 17 16 16 16 17 17 17 17 17 17 16 16 16 16 16 16 16 16 16 16 16 16 16 16 16 16 16 16 16 16
29 29 28 26 24 24 23 21 21 21 20 20 20 19 19 19 18 17 17 17 17 17 17 17 17 17 17 17 17 16 16 15 15 15 16 16 17 17 16 16 16 16 16 16 16 16 16 16 16
29 29 29 27 25 25 24 23 22 22 21 20 19 19 19 18 18 18 18 17 17 17 17 17 17 17 17 17 16 15 15 16 15 15 15 16 16 17 17 16 16 16 16 16 16 15 15 16 16
29 29 28 27 26 27 26 25 23 23 22 21 20 20 19 18 18 18 18 17 17 17 16 16 16 16 16 16 15 15 15 15 14 14 14 14 15 16 16 16 16 16 16 16 16 15 15 15 16
28 28 28 27 27 27 26 26 23 23 23 22 21 20 19 19 18 18 17 17 17 16 16 16 16 16 16 16 15 15 15 15 15 14 14 14 14 14 15 15 16 16 16 16 16 15 15 15 15
28 28 27 28 28 26 26 26 23 23 23 23 22 20 19 18 18 18 17 17 16 16 16 15 15 15 14 14 14 14 14 14 14 14 14 14 14 14 14 14 15 15 15 15 15 15 15 15 15
29 28 27 27 26 26 26 25 22 23 23 23 22 21 19 19 18 18 17 17 16 16 15 15 14 13 13 13 13 13 13 13 13 13 13 13 14 14 13 13 14 14 14 15 15 15 15 15 15
28 28 26 25 26 26 25 24 22 22 21 21 21 20 19 19 18 18 17 16 16 15 15 14 13 13 13 13 12 12 12 12 13 13 13 13 13 13 13 13 13 13 13 14 14 14 14 14 14
28 28 28 27 26 26 25 23 22 21 21 21 20 20 19 18 18 17 17 16 15 15 14 13 13 12 12 12 12 12 12 11 12 11 11 12 12 12 12 12 12 13 13 13 13 13 13 14 14
27 27 27 26 25 25 25 24 22 22 22 21 21 20 19 18 18 17 16 16 15 14 14 13 12 12 11 11 11 11 11 11 11 11 11 11 11 11 11 11 12 12 12 12 13 12 12 13 13
27 26 26 26 25 24 24 24 23 22 21 21 21 20 19 18 17 17 16 15 14 14 13 13 12 11 11 10 10 10 10 10 10 10 10 10 10 10 10 11 11 11 11 11 12 12 12 12 12
26 25 26 25 24 24 24 24 22 22 21 20 20 19 18 17 16 16 15 14 14 13 12 12 11 10 10 9 9 9 8 9 9 9 9 9 9 9 10 10 10 11 11 11 11 11 12 12 12
Wind_Speed
19 16 9 5 5 5 6 6 5 6 5 4 3 2 5 7 7 4 4 9 13 18 20 21 19 17 15 14 13 13 12 12 13 13 14 13 13 12 12 12 11 10 9 8 8 7 7 7 7
15 11 6 5 5 5 8 8 8 7 5 2 1 2 4 6 6 5 7 11 16 18 19 18 19 16 15 13 12 12 11 11 11 12 12 12 11 11 10 10 10 10 9 8 7 7 7 7 6
12 8 5 5 3 7 8 10 9 6 2 1 2 4 5 6 5 4 9 14 17 17 17 18 19 16 15 13 12 11 11 11 11 11 11 11 11 10 10 10 10 9 9 9 8 7 8 8 6
7 5 5 7 5 6 6 10 10 6 1 1 2 4 5 7 4 8 14 15 17 16 16 19 18 16 15 14 12 12 11 11 11 11 11 11 11 11 11 11 10 9 9 8 7 7 7 8 7
5 5 7 6 3 5 5 9 9 7 4 3 3 5 7 7 9 14 15 15 16 15 14 19 18 17 16 14 13 12 12 11 11 11 11 11 11 11 11 11 11 10 9 8 6 6 6 7 8
4 5 8 7 5 4 5 9 8 7 5 4 3 5 6 7 10 13 14 14 15 14 13 18 17 16 16 15 14 13 12 12 12 12 12 11 10 10 9 9 9 8 8 8 7 7 7 8 8
6 6 9 9 6 3 8 11 10 9 7 6 3 5 8 10 12 13 14 13 14 14 13 14 16 16 16 16 15 15 14 14 13 14 13 13 12 11 10 9 9 9 8 9 9 9 10 10 10
6 6 10 8 6 4 9 12 12 10 7 5 4 3 7 12 14 15 14 13 13 13 13 12 13 15 16 17 18 17 17 17 16 15 15 15 14 14 13 13 13 12 12 12 12 12 12 12 13
5 7 11 8 6 6 11 12 12 6 5 8 9 8 8 17 16 16 15 14 13 13 12 13 13 13 14 15 17 19 18 18 18 18 18 17 16 16 16 18 15 15 14 14 14 14 15 15 16
7 10 10 6 6 9 10 10 12 8 7 9 9 9 12 15 15 15 15 15 15 15 14 12 12 12 12 11 12 13 15 16 17 15 16 17 15 13 14 12 14 15 16 16 17 16 15 16 14
7 10 9 7 8 9 9 7 9 10 8 12 10 4 10 12 12 12 13 13 13 14 12 11 9 7 8 7 7 8 9 10 14 15 15 14 13 12 12 10 12 15 17 16 16 17 16 15 13
9 11 11 12 10 8 7 4 5 12 10 11 6 7 9 10 9 10 11 11 10 8 6 3 0 2 4 5 5 6 6 7 8 11 14 12 9 9 9 9 10 10 11 11 12 10 13 13 13
11 11 9 9 9 6 2 1 5 12 10 10 10 10 8 8 8 7 7 6 4 2 3 4 5 3 3 4 6 6 7 8 9 10 12 13 10 11 10 9 10 11 11 10 10 11 11 12 12
5 6 6 5 4 4 5 5 5 9 9 11 12 11 10 8 7 6 5 6 7 7 6 6 5 5 5 5 6 7 7 8 10 10 13 14 12 10 10 10 10 10 11 11 9 11 10 11 11
7 6 4 4 3 7 9 8 7 7 8 10 11 11 11 10 10 10 9 8 7 7 7 6 6 6 6 6 6 6 6 7 7 8 10 11 12 11 10 9 10 10 10 10 9 11 9 10 12
7 8 5 6 2 3 7 4 8 6 7 9 9 9 9 10 10 8 8 7 7 7 6 6 6 6 6 5 5 5 5 5 5 6 6 7 8 9 7 9 10 8 8 7 8 9 9 9 10
5 2 4 6 6 2 2 7 7 6 7 8 8 8 8 8 9 8 7 7 7 7 7 7 6 6 6 6 5 5 4 4 5 5 5 6 8 9 7 8 8 8 7 7 9 8 8 9 9
1 1 2 5 7 7 9 9 7 6 7 7 7 7 7 8 8 7 7 7 7 7 7 7 7 8 8 7 6 6 5 5 4 4 5 7 7 8 7 8 8 7 6 7 7 7 7 8 8
4 4 1 6 4 6 10 10 7 6 6 7 7 7 8 8 8 7 7 8 8 8 9 9 9 9 9 8 8 8 7 7 6 5 6 7 7 7 7 7 6 7 7 8 8 7 9 9 7
6 6 2 6 6 4 9 9 7 6 6 6 7 7 8 8 9 8 8 8 9 9 9 9 10 10 9 8 7 6 7 7 6 6 6 8 8 7 7 7 7 7 7 8 8 8 8 8 7
7 7 3 4 6 7 9 8 7 7 6 6 6 6 7 7 8 8 8 9 9 9 10 9 9 9 9 8 7 7 6 6 6 7 6 8 8 8 7 7 8 8 9 8 9 10 11 9 8
4 3 3 6 9 5 8 3 7 7 6 6 5 5 5 4 5 6 7 9 10 10 10 10 10 10 9 9 9 10 8 9 8 7 7 8 7 8 7 7 7 8 8 9 10 11 10 10 10
4 3 3 7 8 4 6 4 7 6 6 6 5 3 2 2 4 6 8 10 11 12 12 12 12 12 11 10 10 10 12 10 9 8 8 8 7 6 6 6 6 6 7 8 10 10 11 10 11
2 3 5 7 8 5 1 5 6 5 4 5 4 2 1 3 6 8 10 12 13 13 14 14 14 14 14 13 13 12 13 13 13 11 10 9 7 6 4 5 5 5 5 7 8 10 12 12 11
4 6 5 4 4 1 2 2 6 5 2 1 2 3 4 6 8 10 13 14 15 15 14 14 14 15 15 15 15 14 14 15 14 14 12 10 10 8 5 5 5 5 5 6 7 8 10 11 12
3 6 6 7 7 3 3 1 5 3 0 2 4 5 6 8 10 12 14 15 15 14 13 14 15 16 17 17 16 15 15 14 14 14 14 13 12 11 9 8 7 7 7 6 6 7 9 9 10
3 4 5 7 7 7 1 6 5 3 2 4 5 6 8 9 11 13 14 15 14 14 15 16 17 18 18 18 18 17 16 15 16 16 15 15 13 12 12 12 11 10 9 8 7 7 7 7 8
5 3 5 7 8 8 5 3 3 3 3 4 6 8 9 11 13 15 15 15 15 16 17 18 18 18 18 19 17 16 17 17 16 16 16 16 16 15 14 14 14 13 12 11 10 8 7 7 7
3 4 5 5 5 8 9 4 5 3 4 6 7 9 12 14 16 16 16 16 16 17 18 18 18 19 19 19 18 18 18 18 18 17 17 16 16 16 16 15 15 15 15 14 12 12 10 10 8
6 6 6 6 5 5 9 4 7 3 5 7 10 12 14 16 17 17 18 17 18 19 19 19 19 20 19 19 18 18 18 18 18 19 18 17 17 17 17 17 17 17 17 17 16 15 13 12 11
Wind_Direction
157 163 178 196 230 227 37 36 12 13 21 20 8 334 344 352 352 18 70 133 143 145 144 153 156 159 159 156 152 150 150 151 155 157 157 157 157 157 156 158 162 164 164 162 156 150 144 140 139
160 164 192 228 268 15 44 23 10 13 5 347 351 319 342 32 38 66 110 133 146 146 147 154 152 157 158 157 155 153 153 154 156 158 159 158 159 161 163 166 169 171 171 165 160 159 155 150 150
161 191 243 250 301 11 13 9 3 350 343 301 18 21 25 35 49 86 122 141 147 144 145 144 152 156 158 159 159 159 160 161 163 165 165 166 169 173 176 177 179 180 173 163 160 164 161 158 163
177 218 237 257 324 27 4 357 355 351 38 45 13 72 75 42 47 112 131 144 145 146 150 144 153 155 158 161 165 168 169 170 172 173 175 177 181 184 186 187 188 186 172 165 166 171 169 166 173
233 254 256 263 346 17 3 358 353 351 15 40 20 70 81 62 92 122 136 143 147 151 149 147 155 156 159 164 170 175 177 178 180 181 183 186 188 191 192 193 193 193 182 177 181 187 189 186 188
236 255 270 295 353 5 14 5 352 4 26 44 38 82 88 108 123 132 137 147 148 150 150 146 157 160 162 167 174 179 182 185 187 188 190 193 195 197 199 198 196 194 191 191 199 206 209 209 208
264 272 283 298 316 350 11 359 4 0 29 43 34 87 120 130 135 139 138 144 149 154 155 156 166 169 171 174 178 182 186 191 194 195 195 197 199 203 206 208 210 212 212 212 212 216 217 217 217
267 273 270 276 296 328 7 360 12 8 39 37 17 63 134 149 147 142 140 144 151 158 161 163 176 177 182 184 185 188 191 193 197 200 202 202 204 208 212 215 211 217 220 222 222 222 223 223 223
247 255 269 285 302 324 356 353 2 8 52 59 39 29 99 140 148 146 144 147 154 162 169 174 178 184 191 195 187 193 197 200 201 204 206 207 213 213 210 219 209 215 224 229 230 229 229 230 228
228 256 271 305 307 319 337 348 354 346 41 40 41 70 116 144 154 157 155 158 163 170 178 183 189 190 199 204 196 205 209 206 210 215 211 215 223 229 228 204 205 221 230 235 237 239 238 236 238
233 260 281 281 289 305 314 342 9 1 18 357 342 122 145 155 163 162 160 165 169 176 183 191 197 207 219 217 217 216 222 219 220 223 223 226 230 234 238 230 216 224 230 236 232 231 236 235 234
247 261 271 277 290 295 303 317 23 36 9 351 16 125 147 158 158 159 161 164 166 174 182 192 310 305 288 282 263 250 246 238 236 231 231 231 232 234 235 237 236 233 233 235 243 240 238 240 239
248 268 280 285 281 279 265 99 83 39 23 37 70 95 114 128 141 144 141 143 133 98 38 11 358 341 318 297 284 268 264 261 254 246 242 239 238 238 236 237 240 243 243 238 238 245 244 241 238
273 281 290 310 288 206 163 112 78 38 43 59 69 75 78 81 83 82 73 54 35 21 9 1 353 347 327 301 286 281 276 269 266 257 251 247 246 246 244 243 243 245 245 248 248 247 248 247 244
272 261 169 60 110 142 144 91 53 45 63 70 70 70 67 58 51 43 34 27 18 8 358 352 345 354 344 323 307 290 283 279 276 271 265 258 255 255 251 251 247 246 246 247 249 251 248 248 246
235 222 166 72 58 178 237 94 56 55 77 75 75 74 68 57 51 43 37 28 20 11 9 6 358 2 355 345 327 316 310 304 297 292 283 280 274 268 260 254 250 247 246 241 244 246 245 244 246
210 199 107 101 47 152 163 93 67 55 75 76 72 70 67 62 52 46 40 38 33 28 24 25 22 10 1 356 344 335 322 309 304 296 290 289 283 273 262 256 251 243 236 234 242 242 246 249 246
357 297 86 80 61 90 98 97 78 65 69 69 67 66 64 59 52 49 46 47 48 45 40 33 33 22 7 6 355 346 334 320 313 306 300 293 278 264 255 252 247 240 232 232 235 242 243 256 254
312 294 1 91 93 82 96 94 81 74 74 73 69 66 69 68 67 61 57 54 57 50 44 36 28 23 13 11 1 354 346 336 337 334 333 317 298 276 258 257 245 243 241 240 238 237 237 240 244
267 265 205 119 118 113 113 101 94 83 76 71 75 77 79 79 73 65 60 56 48 42 33 29 25 20 14 13 357 349 338 331 340 343 349 344 332 312 279 258 249 240 246 242 244 240 253 246 230
261 275 272 167 151 159 150 129 122 114 110 106 98 90 83 73 65 56 44 37 30 22 14 11 6 3 5 354 348 349 340 332 346 349 350 351 343 335 320 294 269 254 248 244 239 238 241 250 241
275 347 277 185 198 198 220 208 140 139 137 128 119 110 94 73 48 28 15 9 3 357 352 351 346 345 342 333 338 340 334 333 335 330 340 337 339 340 339 322 298 272 252 247 243 235 240 246 250
1 346 242 214 233 232 215 243 141 164 163 149 141 127 85 29 360 351 347 345 342 339 337 335 335 331 328 322 313 307 310 315 312 314 316 316 321 326 335 335 323 300 278 259 249 248 238 238 245
160 182 182 211 231 227 179 265 140 157 154 152 161 183 280 308 317 323 327 328 327 327 327 328 329 327 324 316 308 299 298 297 298 296 299 297 300 297 304 315 317 309 299 284 265 254 241 239 243
242 282 269 243 244 116 136 267 101 105 111 211 240 253 275 293 306 316 322 324 321 321 324 326 329 329 326 320 313 305 298 292 285 283 286 284 286 283 277 279 280 287 285 281 275 263 257 245 238
356 326 334 322 324 332 173 113 107 93 90 269 270 277 283 296 311 319 323 322 319 319 322 326 327 324 322 319 317 311 302 294 291 290 288 284 280 278 276 260 252 254 259 264 265 263 256 253 245
327 360 347 301 295 293 154 129 132 152 235 262 274 281 291 306 313 316 321 322 319 316 318 321 321 320 320 318 315 307 306 302 298 295 283 279 276 274 264 254 249 244 240 240 246 252 253 250 245
35 0 316 322 326 314 301 203 147 162 307 288 284 295 305 309 311 317 321 322 321 318 318 317 318 318 318 316 317 315 314 309 303 297 293 288 285 278 272 262 254 248 241 231 228 236 238 241 240
42 31 346 329 338 320 320 2 91 28 322 309 306 309 313 316 318 319 319 321 321 319 319 320 319 318 316 315 315 313 310 308 305 299 293 288 282 279 273 266 261 254 246 237 228 231 222 226 233
53 25 358 339 340 319 310 353 108 12 318 304 309 314 318 319 318 319 320 321 320 320 320 319 318 315 314 315 312 309 307 305 302 299 299 295 288 280 272 268 264 259 251 241 233 231 226 220 222
Height
1525 1527 1530 1533 1527 1514 1504 1500 1496 1495 1495 1497 1498 1497 1496 1496 1500 1508 1511 1509 1511 1514 1515 1518 1521 1524 1527 1529 1531 1533 1535 1537 1539 1541 1543 1544 1545 1546 1547 1548 1549 1550 1551 1553 1554 1555 1557 1558 1558
1527 1529 1533 1530 1514 1505 1506 1499 1497 1497 1499 1500 1499 1499 1497 1499 1506 1509 1509 1510 1513 1516 1517 1520 1522 1525 1528 1530 1532 1534 1536 1538 1539 1541 1542 1544 1545 1546 1547 1548 1549 1550 1551 1553 1554 1555 1556 1558 1559
1529 1531 1531 1519 1506 1508 1508 1499 1498 1497 1499 1499 1499 1499 1501 1505 1509 1510 1511 1511 1515 1518 1520 1520 1523 1526 1529 1531 1533 1535 1537 1538 1540 1541 1542 1543 1545 1546 1547 1548 1549 1550 1552 1553 1554 1555 1556 1557 1559
1531 1531 1527 1514 1504 1502 1503 1500 1498 1496 1497 1499 1498 1499 1505 1510 1511 1511 1511 1514 1518 1520 1522 1521 1524 1527 1529 1531 1533 1535 1537 1538 1540 1541 1542 1543 1544 1545 1546 1548 1549 1550 1551 1553 1554 1555 1556 1557 1558
1531 1527 1514 1504 1501 1500 1499 1500 1499 1496 1495 1497 1498 1499 1507 1511 1511 1512 1513 1516 1519 1522 1524 1522 1524 1527 1529 1531 1533 1534 1536 1538 1539 1540 1541 1542 1544 1545 1546 1547 1548 1550 1551 1552 1553 1555 1556 1557 1558
1528 1520 1511 1504 1501 1500 1498 1499 1498 1496 1496 1498 1499 1500 1509 1512 1513 1514 1515 1518 1520 1522 1524 1523 1524 1526 1528 1530 1532 1533 1535 1537 1538 1539 1540 1542 1543 1544 1545 1546 1548 1549 1550 1551 1552 1553 1554 1556 1556
1525 1515 1509 1506 1504 1501 1499 1499 1497 1496 1495 1499 1500 1500 1509 1512 1513 1514 1515 1518 1520 1522 1524 1524 1525 1526 1527 1529 1530 1532 1534 1535 1537 1538 1539 1541 1542 1543 1544 1545 1546 1548 1549 1549 1550 1551 1553 1554 1555
1523 1516 1507 1503 1505 1502 1500 1499 1499 1499 1500 1503 1502 1501 1507 1510 1511 1513 1514 1516 1518 1521 1523 1523 1526 1527 1527 1528 1529 1531 1532 1534 1535 1537 1538 1539 1541 1542 1542 1543 1544 1546 1547 1547 1548 1549 1550 1551 1552
1523 1516 1507 1502 1505 1502 1502 1501 1501 1501 1501 1503 1506 1506 1507 1508 1511 1513 1515 1516 1517 1519 1522 1523 1525 1525 1527 1528 1528 1529 1530 1531 1533 1534 1535 1537 1538 1540 1540 1541 1542 1543 1544 1545 1545 1546 1547 1548 1549
1518 1510 1503 1503 1505 1504 1505 1504 1504 1501 1500 1505 1508 1510 1509 1510 1513 1515 1516 1517 1518 1519 1521 1522 1524 1525 1527 1528 1529 1529 1529 1529 1530 1532 1533 1534 1536 1538 1539 1539 1539 1540 1540 1541 1542 1543 1544 1545 1546
1512 1506 1502 1505 1506 1506 1505 1505 1507 1504 1505 1511 1510 1511 1512 1514 1516 1517 1518 1519 1520 1521 1522 1523 1525 1526 1528 1528 1527 1527 1527 1527 1527 1528 1530 1531 1532 1533 1535 1535 1535 1535 1536 1537 1538 1539 1540 1541 1542
1509 1506 1506 1505 1505 1506 1506 1507 1509 1513 1516 1513 1510 1511 1513 1515 1517 1519 1520 1521 1522 1524 1525 1526 1526 1525 1525 1525 1525 1525 1525 1525 1525 1525 1525 1527 1527 1528 1529 1530 1531 1531 1532 1532 1534 1534 1535 1536 1537
1508 1505 1504 1504 1504 1505 1507 1509 1513 1517 1517 1515 1513 1514 1515 1517 1519 1521 1522 1523 1524 1525 1524 1523 1522 1522 1521 1521 1522 1522 1522 1522 1522 1521 1521 1522 1522 1523 1524 1525 1526 1527 1528 1528 1528 1529 1530 1531 1531
1504 1504 1504 1504 1503 1505 1506 1510 1514 1520 1520 1518 1517 1517 1518 1520 1521 1522 1523 1523 1523 1522 1522 1522 1521 1521 1519 1518 1518 1518 1517 1517 1517 1516 1516 1517 1518 1519 1519 1520 1520 1521 1522 1522 1523 1524 1524 1525 1526
1504 1502 1501 1504 1504 1505 1506 1513 1520 1523 1522 1522 1521 1521 1521 1522 1522 1523 1523 1522 1522 1522 1522 1521 1520 1519 1517 1516 1515 1514 1513 1513 1512 1512 1511 1512 1513 1514 1514 1514 1515 1516 1516 1517 1518 1518 1519 1519 1520
1497 1494 1496 1505 1505 1506 1505 1513 1523 1524 1524 1524 1524 1524 1524 1524 1524 1524 1524 1524 1523 1522 1521 1520 1519 1517 1515 1514 1512 1511 1510 1510 1509 1508 1508 1508 1508 1509 1509 1510 1511 1511 1511 1512 1513 1514 1514 1515 1515
1490 1491 1495 1502 1505 1503 1503 1517 1525 1525 1525 1525 1526 1526 1526 1527 1526 1526 1525 1525 1523 1522 1520 1519 1517 1516 1515 1513 1511 1510 1509 1508 1507 1507 1506 1505 1505 1506 1505 1506 1506 1506 1507 1508 1509 1510 1510 1511 1511
1497 1494 1496 1501 1506 1504 1509 1521 1525 1526 1526 1526 1527 1527 1528 1528 1528 1527 1526 1525 1523 1522 1520 1519 1518 1516 1514 1513 1512 1510 1509 1508 1507 1506 1504 1503 1503 1503 1502 1502 1502 1502 1503 1504 1505 1505 1506 1507 1508
1496 1496 1497 1504 1509 1510 1517 1523 1526 1526 1526 1527 1528 1528 1529 1529 1529 1528 1527 1527 1525 1523 1521 1520 1518 1516 1514 1512 1511 1510 1509 1507 1506 1504 1502 1501 1501 1500 1499 1499 1499 1499 1500 1501 1502 1502 1503 1504 1505
1496 1497 1498 1506 1510 1512 1519 1524 1526 1527 1528 1529 1529 1529 1530 1530 1530 1530 1529 1528 1526 1524 1522 1520 1518 1516 1514 1512 1510 1509 1507 1506 1504 1502 1499 1498 1497 1497 1497 1496 1496 1496 1497 1497 1497 1499 1501 1502 1502
1494 1494 1494 1501 1509 1510 1513 1521 1523 1526 1528 1530 1530 1531 1531 1531 1531 1530 1529 1528 1526 1524 1522 1520 1518 1516 1513 1511 1510 1508 1507 1505 1503 1500 1497 1495 1493 1493 1492 1492 1492 1492 1493 1494 1494 1496 1497 1499 1499
1494 1491 1494 1499 1505 1502 1507 1515 1521 1521 1524 1528 1529 1530 1531 1531 1531 1530 1529 1527 1526 1524 1521 1519 1516 1514 1512 1510 1508 1507 1505 1503 1500 1498 1495 1492 1490 1488 1487 1487 1487 1488 1489 1490 1490 1492 1494 1494 1496
1494 1494 1493 1495 1497 1501 1503 1508 1521 1519 1521 1523 1527 1529 1530 1531 1530 1529 1528 1526 1524 1522 1520 1517 1514 1512 1509 1507 1505 1503 1502 1500 1498 1495 1493 1490 1488 1485 1484 1483 1483 1483 1483 1484 1486 1487 1488 1490 1491
1495 1495 1494 1493 1491 1506 1504 1506 1522 1516 1518 1520 1525 1528 1529 1529 1529 1528 1526 1525 1522 1520 1518 1515 1512 1509 1506 1504 1502 1499 1497 1495 1493 1491 1489 1488 1486 1483 1481 1480 1479 1478 1478 1478 1479 1481 1482 1484 1486
1492 1495 1502 1505 1505 1508 1502 1505 1521 1518 1520 1522 1524 1526 1528 1528 1527 1526 1525 1523 1520 1517 1515 1512 1508 1505 1503 1500 1498 1495 1492 1490 1488 1486 1485 1483 1482 1481 1478 1476 1475 1474 1474 1473 1473 1474 1475 1477 1479
1494 1494 1508 1518 1512 1503 1502 1511 1520 1521 1523 1525 1525 1526 1527 1527 1525 1524 1523 1520 1517 1514 1511 1508 1505 1502 1499 1496 1493 1490 1487 1485 1484 1482 1480 1478 1477 1476 1474 1472 1471 1470 1469 1469 1468 1468 1469 1470 1472
1495 1495 1495 1501 1502 1507 1505 1514 1520 1522 1523 1524 1524 1525 1525 1525 1524 1522 1520 1517 1514 1511 1508 1505 1501 1498 1494 1491 1487 1485 1482 1480 1477 1475 1473 1472 1471 1469 1468 1466 1465 1465 1464 1464 1463 1463 1463 1463 1464
1499 1499 1498 1504 1517 1517 1506 1506 1517 1518 1520 1521 1522 1523 1523 1523 1521 1519 1517 1514 1511 1508 1505 1501 1497 1493 1489 1485 1482 1479 1476 1473 1471 1469 1467 1465 1463 1462 1461 1460 1459 1459 1458 1458 1458 1457 1457 1457 1458
1503 1504 1504 1503 1510 1520 1519 1513 1513 1518 1520 1520 1520 1521 1521 1520 1518 1516 1513 1510 1507 1503 1499 1496 1492 1487 1483 1479 1475 1471 1468 1465 1463 1461 1459 1457 1455 1454 1453 1452 1452 1452 1452 1452 1451 1452 1451 1452 1452
1507 1510 1509 1515 1518 1516 1517 1514 1514 1517 1519 1520 1520 1520 1519 1518 1515 1512 1509 1505 1502 1498 1494 1490 1486 1482 1477 1473 1469 1465 1461 1458 1455 1453 1450 1448 1446 1445 1444 1444 1443 1443 1444 1444 1444 1445 1445 1446 1447